Regional Weather Roundup
Issued by NWS Goodland, KS

Home | Current Version | Previous Version | Graphics & Text | Print | Product List | Glossary On
Versions: 1 2 3 4 5 6 7 8 9 10 11 12 13 14 15 16 17 18 19 20 21 22 23 24 25 26 27 28 29 30 31 32 33 34 35 36 37 38 39 40 41 42 43 44 45 46 47 48 49 50
000
ASUS43 KGLD 260659
RWRGLD

GOODLAND FORECAST AREA HOURLY WEATHER ROUNDUP
NATIONAL WEATHER SERVICE GOODLAND KS
100 AM MDT WED APR 26 2017

...OFFICIAL OBSERVATIONS...

CITY           SKY/WX    TMP DP  RH WIND       PRES   REMARKS
GOODLAND KS    CLOUDY    37  33  85 N18G28    29.76R
HILL CITY KS   CLOUDY    40  33  76 N23G31    29.73S
IMPERIAL NEB   CLOUDY    34  26  72 N21G28    29.81R
MCCOOK NEB     CLOUDY    37  29  72 N24G35    29.76F
AKRON CO       CLOUDY    31  28  89 N18       29.82R WCI  19
BURLINGTON CO  NOT AVBL
LIMON CO       CLOUDY    33  32  96 N12       29.79S
$$

...UNOFFICIAL OBSERVATIONS...

CITY           SKY/WX    TMP DP  RH WIND       PRES   REMARKS
LENORA KS        N/A     38  32  79 MISG        N/A
NORTON KS      CLOUDY    37  28  70 NW22G30   29.72F
SHARON SPRINGS   N/A     39  35  87 N14         N/A
TRENTON NEB      N/A     35  32  89 N12         N/A
KIT CARSON CO    N/A     38  34  87 MISG        N/A
YUMA CO        CLOUDY    32  30  93 N16G23    29.81R
$$




USA.gov is the U.S. government's official web portal to all federal, state and local government web resources and services.